sat.trackr.live / text

‹ back to catalog

STARLINK-37838

NORAD 69654 · 2026-143F

PAYLOAD ACTIVE UNKNOWN

§ Identity

Operator
Country
US
Launch date
2026-06-21
Launch site
AFWTR
Launch vehicle
Mass (kg)
RCS (m²)

Purposes: comms

External: N2YO · Heavens-Above · Gunter

§ Orbital elements

Epoch: 2026-09-19T23:11:07.323072Z

Period
93.91 min
Inclination
97.2846°
Eccentricity
0.0000764
Mean motion
15.33440039 rev/d
Perigee alt
465.0 km
Apogee alt
466.1 km
Semi-major
6,843.7 km
B*
4.3742e-5
RAAN
306.2077°
Arg perigee
97.9110°
Mean anomaly
262.2220°
Rev number
1,513

§ Raw data

STARLINK-378381 69654U 26143F   26262.96605698  .00001337  00000+0  43742-4 0  99902 69654  97.2846 306.2077 0000764  97.9110 262.2220 15.33440039 15135

JSON: /api/v1/satellites/69654 · /tle

For live sub-satellite position, see the globe view (requires WebGL).

§ Visibility from observer

Set your observer location to see the next 7 days of passes ≥ 10°. The values pass through the URL so the page stays shareable.

No JS? Fill the form by hand. The geolocation button needs JavaScript.